CXA673 KSNA-KVGT

Flight info

Callsign CXA673
Flight time 0h 46m
Altitude 31000
Route FINZZ3 MISEN NTNDO1
Aircraft C750/M-SBDE3FGHRWXY/S

Departure

Time 2026-04-23 01:59
Airport John Wayne Orange County International Airport (KSNA)

Arrival

Time 2026-04-23 02:46
Airport North Las Vegas Airport (KVGT)
Time Latitude Longitude Altitude Speed Heading
2026-04-23 01:38 33.67414 -117.86569 55 ft 0 kts 208°
2026-04-23 01:54 33.67410 -117.86571 53 ft 4 kts 208°
2026-04-23 01:54 33.67412 -117.86624 57 ft 11 kts 313°
2026-04-23 01:54 33.67507 -117.86589 56 ft 21 kts 27°
2026-04-23 01:54 33.67666 -117.86496 53 ft 28 kts 25°
2026-04-23 01:55 33.67841 -117.86378 49 ft 28 kts 28°
2026-04-23 01:55 33.68005 -117.86277 46 ft 19 kts 10°
2026-04-23 01:55 33.68095 -117.86377 44 ft 18 kts 298°
2026-04-23 01:55 33.68116 -117.86426 43 ft 0 kts 297°
2026-04-23 01:56 33.68123 -117.86441 43 ft 5 kts 297°
2026-04-23 01:56 33.68147 -117.86505 42 ft 9 kts 277°
2026-04-23 01:56 33.68128 -117.86536 43 ft 0 kts 207°
2026-04-23 01:58 33.68075 -117.86568 45 ft 29 kts 207°
2026-04-23 01:58 33.67548 -117.86900 59 ft 134 kts 207°
2026-04-23 01:59 33.66669 -117.87470 533 ft 150 kts 213°
2026-04-23 01:59 33.65638 -117.87952 1186 ft 169 kts 194°
2026-04-23 01:59 33.64413 -117.88059 1883 ft 180 kts 189°
2026-04-23 01:59 33.63125 -117.88171 2710 ft 197 kts 189°
2026-04-23 02:00 33.61735 -117.88789 3169 ft 228 kts 208°
2026-04-23 02:00 33.60155 -117.89541 3680 ft 263 kts 198°
2026-04-23 02:00 33.58320 -117.89888 4658 ft 271 kts 188°
2026-04-23 02:00 33.56512 -117.90607 4953 ft 269 kts 215°
2026-04-23 02:01 33.55161 -117.92087 5006 ft 265 kts 227°
2026-04-23 02:01 33.53867 -117.93673 5091 ft 265 kts 227°
2026-04-23 02:01 33.52499 -117.95218 5730 ft 269 kts 225°
2026-04-23 02:01 33.51128 -117.96729 6901 ft 269 kts 226°
2026-04-23 02:02 33.50119 -117.98608 7759 ft 268 kts 253°
2026-04-23 02:02 33.49863 -118.00773 9006 ft 262 kts 274°
2026-04-23 02:02 33.50343 -118.02846 10097 ft 263 kts 295°
2026-04-23 02:02 33.51470 -118.04601 11019 ft 266 kts 310°
2026-04-23 02:03 33.52752 -118.06215 11988 ft 266 kts 310°
2026-04-23 02:03 33.54012 -118.07819 12928 ft 267 kts 310°
2026-04-23 02:03 33.55297 -118.09468 13866 ft 269 kts 310°
2026-04-23 02:03 33.56844 -118.10828 14490 ft 286 kts 326°
2026-04-23 02:04 33.58859 -118.11612 14537 ft 326 kts 345°
2026-04-23 02:04 33.61230 -118.11482 14480 ft 370 kts
2026-04-23 02:04 33.63666 -118.10269 15061 ft 381 kts 19°
2026-04-23 02:04 33.66061 -118.08832 15746 ft 386 kts 20°
2026-04-23 02:05 33.68473 -118.07397 16360 ft 392 kts 19°
2026-04-23 02:05 33.70959 -118.05968 17041 ft 396 kts 18°
2026-04-23 02:05 33.73456 -118.04531 17711 ft 402 kts 19°
2026-04-23 02:05 33.75995 -118.03041 18405 ft 407 kts 19°
2026-04-23 02:06 33.78560 -118.01533 19036 ft 412 kts 19°
2026-04-23 02:06 33.81159 -118.00018 19674 ft 417 kts 19°
2026-04-23 02:06 33.83770 -117.98499 20346 ft 422 kts 19°
2026-04-23 02:06 33.86439 -117.96937 21017 ft 427 kts 19°
2026-04-23 02:07 33.89106 -117.95370 21651 ft 432 kts 19°
2026-04-23 02:07 33.91742 -117.93471 22246 ft 447 kts 29°
2026-04-23 02:07 33.94241 -117.91173 22932 ft 452 kts 31°
2026-04-23 02:07 33.96754 -117.88869 23569 ft 457 kts 31°
2026-04-23 02:08 33.99306 -117.86560 24130 ft 462 kts 30°
2026-04-23 02:08 34.01890 -117.84203 24718 ft 466 kts 31°
2026-04-23 02:08 34.04470 -117.81826 25262 ft 470 kts 31°
2026-04-23 02:08 34.07088 -117.79415 25820 ft 474 kts 31°
2026-04-23 02:09 34.09566 -117.76713 26310 ft 486 kts 41°
2026-04-23 02:09 34.11738 -117.73609 26870 ft 493 kts 46°
2026-04-23 02:09 34.13916 -117.70358 27419 ft 496 kts 46°
2026-04-23 02:09 34.16098 -117.67131 27961 ft 500 kts 45°
2026-04-23 02:10 34.18313 -117.63861 28499 ft 504 kts 46°
2026-04-23 02:10 34.20531 -117.60559 29051 ft 509 kts 46°
2026-04-23 02:10 34.22769 -117.57216 29589 ft 513 kts 46°
2026-04-23 02:10 34.25026 -117.53857 30139 ft 517 kts 46°
2026-04-23 02:11 34.27319 -117.50449 30572 ft 522 kts 46°
2026-04-23 02:11 34.29611 -117.47032 30976 ft 527 kts 46°
2026-04-23 02:11 34.31967 -117.43510 31068 ft 540 kts 46°
2026-04-23 02:11 34.34333 -117.39976 31076 ft 554 kts 46°
2026-04-23 02:12 34.39286 -117.32557 31077 ft 571 kts 46°
2026-04-23 02:12 34.44297 -117.25039 31082 ft 580 kts 46°
2026-04-23 02:13 34.49365 -117.17416 31075 ft 581 kts 47°
2026-04-23 02:13 34.54439 -117.09785 31054 ft 577 kts 46°
2026-04-23 02:14 34.59569 -117.02338 31025 ft 574 kts 46°
2026-04-23 02:14 34.63828 -116.96098 30996 ft 571 kts 45°
2026-04-23 02:15 34.71458 -116.84967 31000 ft 570 kts 46°
2026-04-23 02:16 34.76484 -116.77597 31007 ft 570 kts 45°
2026-04-23 02:16 34.81573 -116.70131 31012 ft 571 kts 46°
2026-04-23 02:17 34.86917 -116.63058 30987 ft 563 kts 35°
2026-04-23 02:17 34.93006 -116.57145 30996 ft 561 kts 32°
2026-04-23 02:18 34.99095 -116.51093 30961 ft 568 kts 37°
2026-04-23 02:18 35.04199 -116.43616 30958 ft 582 kts 53°
2026-04-23 02:19 35.07666 -116.34599 30955 ft 592 kts 70°
2026-04-23 02:19 35.09131 -116.24714 30949 ft 595 kts 87°
2026-04-23 02:19 35.09093 -116.19725 30471 ft 577 kts 94°
2026-04-23 02:20 35.08798 -116.14944 29659 ft 555 kts 96°
2026-04-23 02:20 35.08498 -116.10309 28957 ft 532 kts 95°
2026-04-23 02:20 35.08248 -116.05870 28286 ft 512 kts 95°
2026-04-23 02:20 35.08018 -116.01615 27639 ft 494 kts 95°
2026-04-23 02:21 35.07772 -115.97539 27021 ft 479 kts 95°
2026-04-23 02:21 35.07519 -115.93522 26408 ft 466 kts 95°
2026-04-23 02:21 35.07494 -115.89617 25790 ft 454 kts 85°
2026-04-23 02:21 35.07970 -115.85870 25234 ft 442 kts 75°
2026-04-23 02:22 35.08649 -115.82271 24699 ft 432 kts 75°
2026-04-23 02:22 35.09304 -115.78711 24147 ft 425 kts 75°
2026-04-23 02:22 35.09931 -115.75231 23604 ft 419 kts 75°
2026-04-23 02:22 35.10565 -115.71760 23000 ft 411 kts 75°
2026-04-23 02:23 35.11181 -115.68423 22488 ft 402 kts 75°
2026-04-23 02:23 35.11786 -115.65116 21962 ft 394 kts 75°
2026-04-23 02:23 35.12376 -115.61867 21453 ft 387 kts 75°
2026-04-23 02:23 35.12957 -115.58663 20947 ft 381 kts 75°
2026-04-23 02:24 35.13536 -115.55493 20444 ft 382 kts 75°
2026-04-23 02:24 35.14113 -115.52317 19944 ft 389 kts 76°
2026-04-23 02:24 35.14701 -115.49066 19425 ft 395 kts 76°
2026-04-23 02:24 35.15297 -115.45768 18889 ft 400 kts 76°
2026-04-23 02:25 35.15898 -115.42437 18359 ft 404 kts 76°
2026-04-23 02:25 35.16501 -115.39087 17767 ft 406 kts 76°
2026-04-23 02:25 35.17107 -115.35721 17222 ft 406 kts 76°
2026-04-23 02:25 35.17715 -115.32331 16749 ft 402 kts 76°
2026-04-23 02:26 35.18311 -115.29006 16246 ft 399 kts 76°
2026-04-23 02:26 35.18899 -115.25720 15723 ft 396 kts 76°
2026-04-23 02:26 35.19481 -115.22462 15205 ft 394 kts 76°
2026-04-23 02:26 35.20066 -115.19186 14679 ft 391 kts 76°
2026-04-23 02:27 35.20638 -115.15975 14179 ft 388 kts 77°
2026-04-23 02:27 35.21243 -115.12781 13629 ft 384 kts 73°
2026-04-23 02:27 35.22419 -115.09895 13065 ft 375 kts 52°
2026-04-23 02:27 35.24193 -115.07675 13029 ft 350 kts 34°
2026-04-23 02:28 35.26240 -115.06242 13045 ft 341 kts 20°
2026-04-23 02:28 35.28400 -115.05032 13052 ft 332 kts 20°
2026-04-23 02:28 35.30467 -115.03868 12815 ft 332 kts 20°
2026-04-23 02:28 35.32641 -115.02650 12062 ft 350 kts 20°
2026-04-23 02:29 35.34881 -115.01391 11596 ft 350 kts 21°
2026-04-23 02:29 35.37043 -115.00161 11362 ft 336 kts 21°
2026-04-23 02:29 35.39140 -114.98979 11080 ft 327 kts 21°
2026-04-23 02:29 35.41176 -114.97837 10792 ft 320 kts 21°
2026-04-23 02:30 35.43179 -114.96708 10518 ft 315 kts 21°
2026-04-23 02:30 35.45192 -114.95718 10195 ft 306 kts 10°
2026-04-23 02:30 35.47260 -114.95654 9900 ft 292 kts 347°
2026-04-23 02:30 35.49170 -114.96346 9687 ft 281 kts 336°
2026-04-23 02:31 35.51006 -114.97140 9464 ft 276 kts 336°
2026-04-23 02:31 35.52808 -114.97905 9227 ft 273 kts 336°
2026-04-23 02:31 35.54594 -114.98657 8984 ft 271 kts 336°
2026-04-23 02:31 35.56365 -114.99407 8742 ft 269 kts 336°
2026-04-23 02:32 35.58131 -115.00157 8489 ft 265 kts 336°
2026-04-23 02:32 35.59864 -115.00893 8265 ft 263 kts 336°
2026-04-23 02:32 35.61584 -115.01623 8037 ft 260 kts 335°
2026-04-23 02:32 35.63282 -115.02345 7809 ft 258 kts 335°
2026-04-23 02:33 35.64974 -115.03065 7589 ft 258 kts 335°
2026-04-23 02:33 35.66700 -115.03798 7343 ft 260 kts 335°
2026-04-23 02:33 35.68407 -115.04536 7108 ft 259 kts 333°
2026-04-23 02:33 35.69903 -115.05631 7047 ft 245 kts 318°
2026-04-23 02:34 35.71192 -115.06937 7052 ft 236 kts 315°
2026-04-23 02:34 35.72424 -115.08221 7054 ft 229 kts 315°
2026-04-23 02:34 35.73629 -115.09470 7053 ft 223 kts 315°
2026-04-23 02:34 35.74802 -115.10681 7049 ft 219 kts 315°
2026-04-23 02:35 35.75959 -115.11884 7050 ft 214 kts 315°
2026-04-23 02:35 35.77080 -115.13052 7056 ft 211 kts 315°
2026-04-23 02:35 35.78193 -115.14218 7056 ft 208 kts 315°
2026-04-23 02:35 35.79288 -115.15362 7065 ft 206 kts 315°
2026-04-23 02:36 35.80385 -115.16493 7055 ft 207 kts 315°
2026-04-23 02:36 35.81508 -115.17650 6933 ft 212 kts 315°
2026-04-23 02:36 35.82659 -115.18859 6578 ft 226 kts 315°
2026-04-23 02:36 35.83876 -115.20161 6229 ft 235 kts 314°
2026-04-23 02:37 35.85119 -115.21506 6074 ft 236 kts 314°
2026-04-23 02:37 35.86353 -115.22810 6076 ft 231 kts 315°
2026-04-23 02:37 35.87760 -115.23786 5974 ft 237 kts 342°
2026-04-23 02:37 35.89387 -115.23527 5988 ft 243 kts 15°
2026-04-23 02:38 35.90900 -115.22642 6059 ft 237 kts 21°
2026-04-23 02:38 35.92362 -115.21755 6073 ft 234 kts 20°
2026-04-23 02:38 35.93834 -115.20859 6059 ft 234 kts 21°
2026-04-23 02:38 35.95290 -115.19974 6064 ft 232 kts 21°
2026-04-23 02:39 35.96725 -115.19110 6052 ft 232 kts 21°
2026-04-23 02:39 35.98176 -115.18239 6056 ft 231 kts 21°
2026-04-23 02:39 35.99626 -115.17368 6055 ft 228 kts 21°
2026-04-23 02:39 36.01041 -115.16512 6051 ft 227 kts 21°
2026-04-23 02:40 36.02462 -115.15654 6046 ft 225 kts 21°
2026-04-23 02:40 36.03855 -115.14822 6026 ft 224 kts 21°
2026-04-23 02:40 36.05260 -115.13994 6028 ft 222 kts 20°
2026-04-23 02:40 36.06651 -115.13170 6026 ft 222 kts 21°
2026-04-23 02:41 36.08051 -115.12347 6024 ft 221 kts 21°
2026-04-23 02:41 36.09435 -115.11528 6020 ft 221 kts 21°
2026-04-23 02:41 36.10813 -115.10709 6027 ft 220 kts 20°
2026-04-23 02:41 36.12206 -115.09882 6023 ft 219 kts 21°
2026-04-23 02:42 36.13577 -115.09076 6031 ft 218 kts 21°
2026-04-23 02:42 36.14956 -115.08272 6028 ft 217 kts 21°
2026-04-23 02:42 36.16340 -115.07527 5873 ft 219 kts 16°
2026-04-23 02:42 36.17859 -115.07055 5377 ft 234 kts
2026-04-23 02:43 36.19423 -115.07091 5199 ft 216 kts 345°
2026-04-23 02:43 36.20645 -115.07943 4730 ft 200 kts 308°
2026-04-23 02:43 36.21151 -115.09437 4403 ft 179 kts 281°
2026-04-23 02:43 36.21310 -115.10902 3780 ft 166 kts 273°
2026-04-23 02:44 36.21305 -115.12292 3286 ft 157 kts 265°
2026-04-23 02:44 36.21249 -115.13542 3066 ft 136 kts 270°
2026-04-23 02:44 36.21376 -115.14666 2860 ft 129 kts 276°
2026-04-23 02:44 36.21453 -115.15758 2673 ft 128 kts 266°
2026-04-23 02:45 36.21417 -115.16834 2557 ft 124 kts 262°
2026-04-23 02:45 36.21374 -115.17938 2310 ft 132 kts 265°
2026-04-23 02:45 36.21358 -115.19014 2198 ft 112 kts 263°
2026-04-23 02:45 36.21344 -115.19810 2201 ft 63 kts 269°
2026-04-23 02:46 36.21335 -115.20144 2204 ft 18 kts 267°
2026-04-23 02:46 36.21332 -115.20201 2206 ft 3 kts 269°
2026-04-23 02:46 36.21332 -115.20244 2207 ft 7 kts 269°
2026-04-23 02:46 36.21311 -115.20288 2207 ft 6 kts 197°
2026-04-23 02:47 36.21270 -115.20278 2206 ft 6 kts 139°
2026-04-23 02:47 36.21266 -115.20219 2206 ft 9 kts 88°
2026-04-23 02:47 36.21267 -115.20140 2205 ft 8 kts 103°
2026-04-23 02:47 36.21268 -115.20069 2204 ft 12 kts 82°
2026-04-23 02:48 36.21272 -115.19930 2200 ft 19 kts 88°
2026-04-23 02:48 36.21276 -115.19763 2198 ft 19 kts 88°
2026-04-23 02:48 36.21279 -115.19599 2196 ft 19 kts 89°
2026-04-23 02:48 36.21282 -115.19438 2195 ft 19 kts 86°
2026-04-23 02:49 36.21285 -115.19278 2193 ft 18 kts 88°
2026-04-23 02:49 36.21288 -115.19081 2192 ft 27 kts 90°
2026-04-23 02:49 36.21295 -115.18846 2185 ft 24 kts 89°
2026-04-23 02:49 36.21235 -115.18786 2187 ft 11 kts 178°
2026-04-23 02:50 36.21181 -115.18784 2182 ft 12 kts 178°
2026-04-23 02:50 36.21149 -115.18745 2181 ft 7 kts 88°
2026-04-23 02:50 36.21150 -115.18704 2180 ft 7 kts 88°
2026-04-23 02:50 36.21142 -115.18672 2184 ft 2 kts 196°
2026-04-23 02:51 36.21135 -115.18694 2181 ft 3 kts 269°
2026-04-23 02:51 36.21135 -115.18698 2181 ft 0 kts 270°